Вернуться в каталог

ARIANE 2 DEB

LostGTO
NORAD 27028·DEBRIS·🇫🇷 France

Запущен Jan 27, 1989 с Guiana Space Centre

Loading…

TLE

УстаревшееSource: Space-Track

Эпоха: Feb 21, 2002, 19:12 UTC

1 27028U 89006H   02052.80067316 +.00002112 +00000-0 +17746-1 0  9994
2 27028 007.9744 276.9476 7172642 176.3260 196.7569 02.27297895003497

Отслеживайте ARIANE 2 DEB в реальном времени с AllMySat

Download on the App Store